Location: Castifao
(42.5040°N, 9.1124°E)
Time: 03:27:21
(UTC+00:00)

H-2A R/B - Pass Details

Date: 23 January 2020
Orbit: 734 x 836 km, 98.2° (Epoch: 18 February)

Event Time Altitude Azimuth Distance (km) Brightness Sun altitude
Exits shadow 18:21:11 17° 18° (NNE) 1,848 3.7 -21.3°
Drops below altitude 10° 18:22:38 10° 7° (N) 2,317 4.3 -21.5°
Sets 18:25:12 0° 357° (N) 3,266 5.2 -22.0°
